Mount Pleasant, TN

4:17 AM CDT on September 26, 2016 (GMT -0500)
Maury County

Weather History for KMRC - April, 2014

Change the Weather History Date:

Wednesday, April 2, 2014

  Actual Average (KBNA) Record (KBNA)
Temperature  
Mean Temperature 66 °F 55 °F  
Max Temperature 80 °F 67 °F 87 °F (1946)
Min Temperature 53 °F 43 °F 25 °F (1924)
Degree Days  
Heating Degree Days 0    
Month to date heating degree days  
Since 1 July heating degree days  
Cooling Degree Days 2    
Month to date cooling degree days  
Year to date cooling degree days  
Growing Degree Days 16 (Base 50)    
Moisture  
Dew Point 60 °F    
Average Humidity 73    
Maximum Humidity 94    
Minimum Humidity 57    
Precipitation  
Precipitation 0.00 in 0.12 in 1.80 in (2009)
Month to date precipitation 0.24  
Year to date precipitation 12.04  
Sea Level Pressure  
Sea Level Pressure 30.01 in    
Wind  
Wind Speed 5 mph (SSW)    
Max Wind Speed 16 mph    
Max Gust Speed -    
Visibility 10 miles    
Events      
T = Trace of Precipitation, MM = Missing Value Source: NWS Daily Summary

Daily Weather History Graph

Daily Weather History Graph

Search for Another Location

Airport or City:

Trip Planner

Search our weather history database for the weather conditions in past years. The results will help you decide how hot, cold, wet, or windy it might be!

Date:

Astronomy

Apr. 02, 2014 Rise Set
Actual Time 6:33 AM CDT 7:11 PM CDT
Civil Twilight 6:08 AM CDT 7:36 PM CDT
Nautical Twilight 5:37 AM CDT 8:07 PM CDT
Astronomical Twilight 5:07 AM CDT 8:38 PM CDT
Moon 8:23 AM CDT (4/2) 10:27 PM CDT (4/2)
Length of Visible Light 13h 28m
Length of Day
12h 37m
Waxing Crescent, 10% of the Moon is Illuminated
Apr 2
Waxing Crescent
Apr 7
First Quarter
Apr 15
Full
Apr 22
Last Quarter
Apr 29
New

Hourly Weather History & Observations

Time (CDT) Temp. Heat Index Dew Point Humidity Pressure Visibility Wind Dir Wind Speed Gust Speed Precip Events Conditions
12:35 AM 60.8 °F - 51.8 °F 72% 30.02 in 10.0 mi Calm Calm - N/A   Clear
12:55 AM 57.2 °F - 51.8 °F 82% 30.02 in 10.0 mi Calm Calm - N/A   Clear
1:15 AM 57.2 °F - 51.8 °F 82% 30.01 in 10.0 mi Calm Calm - N/A   Clear
1:35 AM 57.2 °F - 51.8 °F 82% 30.01 in 10.0 mi Calm Calm - N/A   Clear
1:55 AM 55.4 °F - 51.8 °F 88% 30.01 in 10.0 mi Calm Calm - N/A   Clear
2:15 AM 55.4 °F - 51.8 °F 88% 30.01 in 10.0 mi Calm Calm - N/A   Clear
2:35 AM 55.4 °F - 51.8 °F 88% 30.01 in 10.0 mi Calm Calm - N/A   Clear
2:55 AM 53.6 °F - 51.8 °F 94% 30.01 in 10.0 mi Calm Calm - N/A   Clear
3:15 AM 55.4 °F - 50.0 °F 82% 30.01 in 10.0 mi Calm Calm - N/A   Clear
3:35 AM 53.6 °F - 50.0 °F 88% 30.01 in 10.0 mi Calm Calm - N/A   Clear
3:55 AM 55.4 °F - 51.8 °F 88% 30.01 in 10.0 mi Calm Calm - N/A   Clear
4:15 AM 53.6 °F - 50.0 °F 88% 30.01 in 10.0 mi Calm Calm - N/A   Clear
4:35 AM 55.4 °F - 51.8 °F 88% 30.01 in 10.0 mi WSW 3.5 mph - N/A   Clear
4:55 AM 55.4 °F - 51.8 °F 88% 30.02 in 10.0 mi WSW 4.6 mph - N/A   Partly Cloudy
5:15 AM 59.0 °F - 53.6 °F 82% 30.03 in 10.0 mi WSW 3.5 mph - N/A   Mostly Cloudy
5:35 AM 57.2 °F - 53.6 °F 88% 30.03 in 10.0 mi Calm Calm - N/A   Overcast
5:55 AM 57.2 °F - 53.6 °F 88% 30.03 in 9.0 mi SSW 3.5 mph - N/A   Scattered Clouds
6:15 AM 59.0 °F - 53.6 °F 82% 30.04 in 10.0 mi West 3.5 mph - N/A   Clear
7:55 AM 64.4 °F - 59.0 °F 83% 30.05 in 10.0 mi SW 6.9 mph - N/A   Clear
8:15 AM 64.4 °F - 59.0 °F 83% 30.05 in 10.0 mi SW 6.9 mph - N/A   Clear
8:35 AM 66.2 °F - 60.8 °F 83% 30.06 in 10.0 mi SW 6.9 mph - N/A   Clear
8:55 AM 69.8 °F - 62.6 °F 78% 30.06 in 10.0 mi SW 9.2 mph - N/A   Clear
9:15 AM 71.6 °F - 62.6 °F 73% 30.06 in 10.0 mi SSW 6.9 mph - N/A   Clear
9:35 AM 71.6 °F - 62.6 °F 73% 30.06 in 10.0 mi SSW 6.9 mph - N/A   Clear
9:55 AM 73.4 °F - 64.4 °F 73% 30.06 in 10.0 mi SSW 6.9 mph - N/A   Clear
10:15 AM 73.4 °F - 64.4 °F 73% 30.05 in 10.0 mi SSW 8.1 mph - N/A   Clear
10:35 AM 75.2 °F - 64.4 °F 69% 30.05 in 10.0 mi SSW 8.1 mph - N/A   Clear
10:55 AM 77.0 °F - 66.2 °F 69% 30.05 in 10.0 mi SSW 11.5 mph - N/A   Partly Cloudy
11:15 AM 77.0 °F - 66.2 °F 69% 30.05 in 10.0 mi SW 11.5 mph - N/A   Scattered Clouds
11:35 AM 75.2 °F - 64.4 °F 69% 30.05 in 10.0 mi SSW 12.7 mph - N/A   Overcast
11:55 AM 75.2 °F - 64.4 °F 69% 30.03 in 10.0 mi SW 10.4 mph - N/A   Overcast
12:15 PM 78.8 °F - 66.2 °F 65% 30.03 in 10.0 mi SW 12.7 mph - N/A   Scattered Clouds
12:55 PM 80.6 °F 82.7 °F 66.2 °F 61% 30.01 in 10.0 mi SSW 10.4 mph - N/A   Partly Cloudy
1:15 PM 80.6 °F 82.7 °F 66.2 °F 61% 30.01 in 10.0 mi South 9.2 mph - N/A   Scattered Clouds
1:35 PM 80.6 °F 82.7 °F 66.2 °F 61% 30.00 in 10.0 mi SW 13.8 mph - N/A   Scattered Clouds
1:55 PM 80.6 °F 82.3 °F 64.4 °F 58% 30.00 in 10.0 mi SW 13.8 mph - N/A   Mostly Cloudy
2:15 PM 78.8 °F - 64.4 °F 61% 30.00 in 10.0 mi SSW 10.4 mph - N/A   Mostly Cloudy
2:35 PM 78.8 °F - 64.4 °F 61% 30.00 in 10.0 mi SSW 9.2 mph - N/A   Mostly Cloudy
2:55 PM 78.8 °F - 64.4 °F 61% 30.00 in 10.0 mi SSW 12.7 mph - N/A   Mostly Cloudy
3:15 PM 78.8 °F - 64.4 °F 61% 29.99 in 10.0 mi SSW 13.8 mph - N/A   Mostly Cloudy
3:35 PM 78.8 °F - 64.4 °F 61% 29.99 in 10.0 mi SSW 16.1 mph - N/A   Mostly Cloudy
3:55 PM 80.6 °F 82.3 °F 64.4 °F 58% 29.98 in 10.0 mi South 12.7 mph - N/A   Mostly Cloudy
4:15 PM 80.6 °F 82.3 °F 64.4 °F 58% 29.98 in 10.0 mi SW 10.4 mph - N/A   Mostly Cloudy
4:35 PM 80.6 °F 82.3 °F 64.4 °F 58% 29.97 in 10.0 mi SSW 12.7 mph - N/A   Mostly Cloudy
4:55 PM 80.6 °F 82.3 °F 64.4 °F 58% 29.96 in 10.0 mi SSW 10.4 mph - N/A   Partly Cloudy
5:15 PM 78.8 °F - 62.6 °F 57% 29.96 in 10.0 mi SSW 10.4 mph - N/A   Clear
5:35 PM 78.8 °F - 64.4 °F 61% 29.96 in 10.0 mi South 9.2 mph - N/A   Clear
5:55 PM 77.0 °F - 62.6 °F 61% 29.97 in 10.0 mi South 9.2 mph - N/A   Mostly Cloudy
6:15 PM 77.0 °F - 62.6 °F 61% 29.97 in 10.0 mi South 9.2 mph - N/A   Mostly Cloudy
6:35 PM 75.2 °F - 60.8 °F 61% 29.96 in 10.0 mi South 8.1 mph - N/A   Partly Cloudy
6:55 PM 73.4 °F - 60.8 °F 65% 29.97 in 10.0 mi South 8.1 mph - N/A   Clear
7:15 PM 73.4 °F - 60.8 °F 65% 29.97 in 10.0 mi South 15.0 mph - N/A   Clear
7:35 PM 73.4 °F - 60.8 °F 65% 29.98 in 10.0 mi SSW 12.7 mph - N/A   Clear
7:55 PM 73.4 °F - 60.8 °F 65% 29.98 in 10.0 mi SSW 10.4 mph - N/A   Clear
8:15 PM 71.6 °F - 60.8 °F 69% 29.99 in 10.0 mi SSW 11.5 mph - N/A   Clear
8:35 PM 71.6 °F - 60.8 °F 69% 29.98 in 10.0 mi South 11.5 mph - N/A   Clear
8:55 PM 71.6 °F - 60.8 °F 69% 29.99 in 10.0 mi SSW 8.1 mph - N/A   Clear
9:15 PM 71.6 °F - 60.8 °F 69% 30.00 in 10.0 mi SSW 10.4 mph - N/A   Clear
9:35 PM 69.8 °F - 60.8 °F 73% 30.00 in 10.0 mi South 6.9 mph - N/A   Partly Cloudy
9:55 PM 69.8 °F - 60.8 °F 73% 29.99 in 10.0 mi South 8.1 mph - N/A   Partly Cloudy
10:15 PM 69.8 °F - 62.6 °F 78% 29.99 in 10.0 mi South 8.1 mph - N/A   Mostly Cloudy
10:35 PM 69.8 °F - 62.6 °F 78% 29.99 in 10.0 mi South 8.1 mph - N/A   Overcast
11:15 PM 69.8 °F - 62.6 °F 78% 29.99 in 10.0 mi SSW 9.2 mph - N/A   Overcast
11:35 PM 69.8 °F - 62.6 °F 78% 29.98 in 10.0 mi South 9.2 mph - N/A   Overcast
11:55 PM 69.8 °F - 62.6 °F 78% 29.98 in 10.0 mi South 9.2 mph - N/A   Mostly Cloudy